Temp
-5 -4 -4 -4 -4 -4 -4 -4 -4 -4 -4 -4 -4 -4 -4 -3 -4 -3 -3 -2 -2 -1 0 1 1 2 3 4 3 3 4 4 3 4 4 3 3 3 3 3 2 3 4 4 4 3 4 2 3 4 2 0 1 1
-5 -5 -5 -4 -4 -4 -4 -4 -4 -4 -4 -4 -4 -4 -4 -3 -4 -3 -3 -2 -1 -1 -1 -0 -0 0 1 3 4 2 2 3 4 3 2 2 3 0 2 3 3 4 4 4 5 5 0 1 2 3 2 1 1 2
-5 -5 -5 -5 -4 -4 -4 -4 -4 -4 -4 -4 -4 -4 -4 -4 -4 -3 -3 -2 -1 -1 -3 -3 -2 -2 -1 0 1 1 2 3 3 3 1 1 2 1 1 1 2 2 2 2 3 -0 -1 -0 1 2 2 2 2 1
-5 -5 -5 -5 -4 -4 -4 -5 -4 -4 -4 -4 -4 -4 -4 -4 -4 -3 -3 -3 -2 -2 -3 -4 -3 -3 -2 -2 -1 -0 0 2 2 3 0 1 2 -1 0 1 2 1 2 -1 -2 -2 -1 -2 -0 1 1 1 1 0
-5 -5 -5 -5 -5 -5 -5 -4 -4 -4 -4 -4 -4 -4 -4 -4 -4 -4 -3 -3 -3 -2 -3 -4 -4 -3 -3 -2 -1 -1 -1 1 0 -1 -1 -1 -2 -2 -3 -2 -1 -2 -1 0 0 -2 -2 -2 -0 1 1 1 0 -0
-5 -5 -5 -5 -5 -4 -4 -4 -4 -5 -4 -5 -5 -4 -5 -5 -4 -4 -3 -3 -3 -3 -3 -4 -4 -4 -3 -3 -2 -1 -1 -1 -2 -3 -3 -3 -3 -2 -2 -2 -1 -1 -1 -1 -1 -2 -1 -1 0 1 0 -0 -0 -1
-5 -5 -5 -5 -5 -5 -4 -4 -5 -5 -5 -5 -5 -4 -5 -5 -3 -4 -4 -4 -3 -3 -3 -4 -3 -4 -3 -3 -3 -3 -3 -3 -3 -3 -4 -3 -4 -3 -3 -3 -1 -1 -1 -0 1 0 -2 -0 -0 -0 -0 -1 -1 -1
-5 -5 -5 -5 -4 -4 -4 -5 -5 -5 -4 -5 -5 -5 -4 -4 -4 -4 -4 -4 -4 -4 -4 -5 -4 -4 -4 -4 -3 -3 -3 -4 -4 -4 -4 -4 -4 -4 -3 -3 -2 -2 -1 -1 -0 1 1 -0 -1 -1 -1 -1 -2 -2
-5 -4 -4 -5 -4 -4 -5 -5 -5 -4 -4 -4 -4 -4 -4 -4 -4 -4 -4 -4 -4 -4 -5 -6 -4 -4 -4 -4 -4 -4 -3 -4 -4 -4 -4 -4 -4 -4 -3 -3 -2 -1 -0 -1 -0 0 -0 -0 -1 -1 -2 -2 -2 -3
-5 -4 -4 -5 -4 -5 -5 -4 -5 -4 -4 -4 -4 -4 -4 -5 -4 -4 -4 -4 -5 -5 -5 -5 -5 -5 -5 -4 -5 -4 -4 -5 -4 -5 -5 -3 -4 -4 -3 -2 -1 -1 -1 -0 -1 -2 -1 -2 -2 -2 -2 -3 -3 -3
-5 -5 -5 -4 -4 -4 -4 -4 -4 -4 -4 -4 -4 -5 -5 -4 -4 -5 -6 -6 -6 -5 -6 -6 -6 -5 -4 -5 -6 -6 -8 -8 -7 -6 -6 -6 -5 -5 -3 -3 -1 -1 -1 -1 -0 -1 -1 -2 -2 -3 -3 -3 -4 -4
-5 -5 -5 -4 -4 -4 -5 -4 -4 -4 -5 -5 -5 -5 -5 -5 -5 -6 -7 -6 -5 -5 -6 -5 -6 -5 -5 -4 -7 -10 -10 -11 -8 -9 -10 -10 -7 -4 -3 -2 -2 -1 -1 -1 -1 -1 -2 -2 -3 -3 -4 -4 -4 -5
-4 -5 -4 -4 -4 -5 -4 -5 -5 -4 -5 -4 -5 -5 -6 -6 -6 -6 -6 -7 -6 -6 -6 -6 -6 -5 -5 -5 -11 -12 -10 -10 -10 -13 -9 -9 -5 -4 -3 -2 -2 -2 -2 -2 -2 -2 -3 -3 -3 -4 -4 -4 -5 -5
-5 -5 -4 -4 -4 -5 -5 -5 -5 -4 -5 -5 -7 -7 -8 -8 -7 -7 -6 -7 -7 -6 -5 -6 -7 -7 -7 -10 -12 -10 -11 -12 -14 -12 -8 -12 -4 -3 -2 -2 -1 -2 -2 -2 -3 -3 -3 -4 -4 -5 -5 -5 -5 -6
-5 -5 -5 -4 -4 -5 -5 -5 -5 -4 -5 -6 -6 -8 -7 -7 -8 -8 -7 -7 -6 -6 -5 -6 -7 -6 -10 -11 -11 -11 -11 -12 -10 -8 -8 -5 -4 -3 -3 -2 -3 -3 -3 -3 -4 -4 -4 -5 -5 -5 -5 -6 -6 -7
-5 -5 -5 -5 -4 -5 -5 -5 -4 -5 -7 -6 -7 -7 -7 -7 -7 -7 -6 -6 -5 -5 -5 -5 -12 -11 -12 -12 -11 -13 -12 -11 -8 -11 -6 -4 -3 -3 -3 -3 -4 -4 -4 -4 -4 -5 -5 -5 -6 -6 -6 -7 -7 -8
-4 -5 -5 -5 -5 -4 -4 -4 -5 -7 -7 -7 -8 -8 -7 -7 -7 -7 -6 -5 -4 -5 -8 -10 -10 -11 -13 -13 -12 -13 -11 -9 -7 -5 -5 -4 -4 -4 -4 -4 -4 -4 -4 -5 -5 -5 -6 -6 -7 -7 -8 -8 -9 -9
-5 -5 -5 -5 -4 -4 -4 -5 -6 -8 -8 -8 -8 -8 -8 -8 -7 -7 -5 -5 -4 -6 -7 -10 -10 -13 -14 -11 -10 -10 -7 -6 -5 -5 -4 -4 -4 -4 -5 -5 -5 -5 -5 -6 -6 -7 -7 -8 -8 -9 -9 -10 -10 -11
-5 -5 -5 -5 -4 -4 -5 -7 -7 -9 -9 -9 -9 -8 -8 -8 -7 -6 -5 -5 -5 -5 -5 -6 -12 -14 -10 -9 -8 -6 -5 -4 -5 -5 -5 -5 -5 -5 -5 -6 -6 -6 -7 -7 -7 -8 -8 -9 -10 -10 -10 -11 -11 -12
-5 -5 -5 -5 -4 -5 -7 -9 -8 -9 -10 -10 -9 -8 -8 -8 -7 -7 -5 -5 -5 -5 -7 -9 -10 -8 -8 -7 -6 -6 -5 -5 -4 -5 -6 -6 -6 -6 -6 -6 -7 -7 -7 -8 -8 -9 -9 -10 -11 -11 -11 -12 -12 -12
-4 -5 -4 -4 -4 -5 -9 -9 -9 -9 -9 -9 -10 -9 -8 -7 -8 -8 -7 -6 -6 -9 -7 -8 -8 -8 -7 -7 -6 -6 -5 -5 -5 -6 -7 -7 -7 -7 -8 -8 -8 -8 -8 -9 -10 -10 -11 -11 -12 -12 -12 -12 -12 -12
-5 -5 -5 -5 -5 -6 -7 -9 -9 -9 -8 -9 -9 -9 -9 -10 -10 -10 -9 -9 -10 -11 -11 -10 -9 -8 -7 -7 -7 -6 -7 -7 -7 -7 -7 -8 -7 -7 -7 -8 -8 -8 -10 -11 -12 -12 -12 -12 -13 -13 -12 -12 -12 -12
-5 -5 -5 -5 -5 -6 -9 -8 -8 -9 -16 -10 -9 -12 -12 -10 -9 -9 -10 -10 -11 -12 -11 -10 -10 -9 -9 -9 -8 -8 -8 -8 -8 -8 -8 -8 -9 -9 -9 -10 -10 -11 -11 -11 -12 -13 -13 -13 -13 -12 -12 -12 -12 -11
-5 -5 -6 -7 -8 -12 -9 -9 -10 -10 -10 -15 -14 -12 -13 -11 -9 -9 -13 -11 -12 -12 -10 -10 -10 -10 -9 -8 -8 -8 -9 -9 -9 -8 -9 -9 -9 -10 -10 -11 -11 -12 -12 -12 -13 -13 -13 -13 -13 -12 -12 -12 -11 -11
-6 -8 -8 -10 -9 -10 -17 -17 -16 -15 -17 -19 -13 -13 -13 -11 -16 -14 -11 -12 -12 -12 -12 -11 -10 -10 -10 -10 -10 -9 -9 -9 -8 -9 -9 -10 -11 -11 -11 -11 -11 -12 -12 -13 -13 -13 -13 -12 -12 -12 -12 -11 -11 -11
-13 -10 -10 -11 -11 -12 -15 -15 -17 -17 -19 -16 -13 -13 -12 -13 -13 -12 -12 -13 -13 -13 -12 -12 -11 -11 -11 -11 -10 -10 -10 -10 -10 -10 -10 -11 -11 -12 -12 -12 -12 -12 -13 -13 -13 -13 -13 -12 -12 -12 -11 -11 -11 -10
-13 -12 -10 -10 -10 -10 -11 -12 -13 -15 -18 -15 -15 -15 -14 -15 -13 -13 -14 -13 -13 -12 -12 -12 -12 -11 -11 -11 -11 -11 -11 -10 -10 -10 -11 -11 -12 -13 -14 -14 -13 -13 -12 -13 -13 -13 -13 -12 -11 -11 -11 -11 -10 -10
-11 -11 -14 -11 -10 -11 -14 -15 -18 -17 -17 -13 -13 -17 -16 -15 -13 -15 -14 -14 -13 -13 -12 -11 -11 -11 -11 -11 -11 -11 -10 -10 -11 -11 -11 -12 -12 -13 -13 -13 -13 -13 -13 -12 -13 -12 -12 -12 -11 -11 -10 -10 -10 -10
-10 -10 -11 -11 -11 -11 -13 -14 -13 -13 -13 -13 -16 -18 -16 -16 -16 -15 -14 -14 -13 -13 -12 -12 -11 -11 -11 -11 -11 -11 -11 -10 -9 -10 -11 -11 -11 -11 -12 -12 -12 -12 -12 -12 -12 -12 -12 -11 -11 -10 -10 -9 -9 -9
-11 -11 -11 -13 -14 -13 -13 -12 -12 -12 -13 -13 -14 -15 -15 -16 -15 -15 -14 -14 -13 -12 -11 -11 -11 -11 -11 -11 -11 -11 -11 -11 -12 -12 -13 -13 -14 -12 -12 -12 -13 -12 -12 -12 -11 -11 -11 -10 -10 -10 -9 -9 -8 -8
-11 -11 -11 -12 -12 -12 -12 -12 -12 -12 -12 -13 -13 -13 -15 -15 -15 -15 -14 -13 -13 -13 -12 -12 -12 -11 -11 -11 -11 -11 -11 -11 -12 -13 -13 -13 -12 -12 -13 -13 -12 -12 -12 -11 -11 -11 -10 -10 -9 -9 -9 -9 -8 -8
-11 -11 -12 -13 -12 -12 -12 -11 -12 -12 -12 -12 -13 -13 -14 -14 -14 -14 -14 -14 -13 -12 -12 -12 -11 -11 -11 -11 -11 -11 -12 -12 -12 -12 -12 -12 -13 -13 -13 -12 -11 -11 -11 -11 -11 -11 -10 -10 -9 -9 -9 -9 -8 -8
-12 -12 -12 -12 -12 -12 -12 -12 -12 -12 -12 -13 -14 -14 -14 -14 -14 -14 -14 -14 -13 -13 -12 -12 -12 -11 -11 -11 -11 -12 -12 -12 -13 -13 -12 -12 -12 -14 -11 -11 -11 -11 -11 -11 -11 -10 -10 -10 -9 -9 -9 -9 -8 -8
Height
1482 1478 1475 1470 1466 1462 1457 1453 1449 1445 1441 1436 1432 1429 1426 1420 1415 1411 1402 1405 1404 1396 1391 1388 1387 1386 1388 1392 1397 1400 1400 1402 1408 1409 1412 1419 1424 1425 1430 1433 1437 1438 1445 1449 1454 1459 1460 1446 1453 1456 1455 1458 1461 1467
1477 1473 1469 1464 1459 1455 1450 1446 1442 1439 1436 1431 1427 1423 1418 1414 1411 1406 1396 1393 1389 1389 1389 1385 1385 1386 1387 1389 1392 1396 1397 1395 1397 1402 1408 1412 1417 1427 1426 1434 1432 1436 1431 1437 1439 1442 1447 1449 1450 1451 1452 1454 1465 1471
1472 1467 1462 1457 1453 1448 1444 1440 1436 1433 1430 1426 1423 1418 1414 1409 1403 1399 1392 1387 1382 1383 1384 1384 1385 1385 1385 1386 1387 1393 1394 1393 1394 1395 1405 1412 1415 1421 1427 1430 1431 1432 1431 1435 1441 1453 1453 1453 1454 1455 1458 1462 1469 1474
1466 1460 1456 1451 1446 1442 1438 1434 1430 1428 1424 1421 1418 1413 1409 1404 1398 1393 1388 1384 1382 1379 1380 1384 1384 1385 1385 1385 1386 1388 1389 1392 1397 1400 1405 1409 1413 1418 1423 1426 1427 1433 1434 1443 1454 1454 1454 1456 1458 1461 1465 1469 1473 1477
1460 1455 1450 1445 1441 1436 1432 1428 1425 1423 1419 1416 1413 1409 1404 1399 1393 1388 1382 1377 1376 1380 1379 1384 1385 1385 1383 1383 1385 1387 1389 1391 1395 1401 1407 1415 1418 1422 1429 1431 1434 1436 1437 1436 1437 1444 1448 1456 1460 1464 1467 1471 1475 1477
1455 1450 1446 1441 1436 1431 1427 1424 1421 1418 1414 1411 1408 1405 1399 1394 1388 1383 1375 1371 1373 1376 1378 1385 1387 1383 1382 1384 1384 1388 1389 1392 1396 1402 1411 1416 1419 1423 1427 1432 1436 1436 1436 1437 1440 1445 1449 1455 1461 1466 1468 1472 1475 1478
1450 1445 1442 1437 1432 1427 1423 1420 1417 1413 1410 1406 1403 1400 1396 1389 1382 1381 1380 1376 1374 1375 1378 1385 1385 1387 1387 1388 1388 1391 1392 1396 1400 1408 1415 1419 1422 1423 1428 1434 1436 1436 1438 1440 1443 1446 1452 1456 1461 1466 1469 1472 1476 1478
1446 1441 1437 1433 1427 1423 1419 1416 1413 1409 1405 1402 1397 1393 1388 1384 1381 1379 1377 1375 1373 1374 1378 1382 1387 1389 1388 1391 1393 1396 1397 1401 1407 1413 1419 1422 1425 1428 1433 1436 1437 1438 1441 1443 1445 1446 1449 1457 1462 1466 1470 1473 1475 1477
1442 1437 1433 1429 1425 1421 1417 1413 1410 1406 1402 1398 1392 1387 1383 1381 1380 1380 1379 1376 1374 1377 1379 1381 1386 1386 1391 1397 1399 1401 1402 1409 1416 1419 1424 1426 1432 1436 1438 1438 1439 1441 1443 1445 1447 1450 1456 1460 1464 1468 1471 1472 1473 1474
1438 1434 1430 1426 1422 1418 1415 1411 1407 1403 1399 1395 1390 1386 1384 1383 1381 1381 1379 1377 1376 1378 1382 1387 1388 1388 1397 1400 1403 1405 1408 1416 1422 1430 1429 1431 1439 1440 1440 1440 1442 1444 1446 1448 1450 1457 1460 1463 1466 1469 1470 1471 1471 1470
1435 1431 1427 1423 1419 1416 1413 1409 1405 1402 1398 1395 1391 1388 1387 1383 1382 1380 1380 1380 1382 1385 1388 1390 1391 1393 1399 1400 1404 1410 1416 1421 1430 1434 1431 1441 1444 1442 1441 1441 1444 1447 1451 1454 1457 1459 1462 1464 1466 1468 1468 1468 1468 1467
1433 1429 1425 1421 1418 1415 1412 1409 1406 1403 1399 1397 1394 1389 1386 1384 1383 1384 1387 1388 1387 1390 1392 1394 1396 1397 1399 1400 1405 1414 1423 1427 1438 1438 1441 1453 1444 1442 1442 1445 1447 1451 1454 1457 1460 1461 1463 1464 1465 1465 1464 1464 1463 1462
1430 1427 1423 1420 1417 1415 1412 1409 1406 1402 1399 1395 1394 1392 1391 1390 1390 1393 1395 1396 1394 1394 1396 1398 1400 1400 1402 1403 1411 1418 1429 1440 1438 1449 1452 1451 1445 1442 1442 1446 1450 1454 1457 1459 1460 1462 1463 1463 1462 1462 1461 1460 1459 1457
1429 1426 1423 1420 1418 1415 1412 1410 1407 1403 1400 1398 1397 1399 1401 1405 1404 1403 1401 1400 1399 1398 1398 1399 1401 1402 1406 1411 1421 1431 1441 1441 1457 1463 1454 1450 1447 1444 1444 1449 1452 1455 1458 1460 1461 1461 1461 1460 1460 1459 1458 1456 1454 1452
1428 1426 1424 1422 1419 1416 1414 1411 1408 1405 1403 1403 1404 1411 1410 1411 1408 1404 1403 1402 1403 1402 1401 1401 1404 1406 1414 1421 1428 1435 1442 1454 1451 1452 1447 1444 1445 1446 1449 1452 1455 1457 1459 1459 1459 1459 1458 1457 1457 1455 1454 1451 1449 1446
1430 1429 1426 1424 1421 1418 1415 1413 1411 1408 1409 1412 1416 1416 1416 1413 1411 1407 1407 1407 1406 1404 1403 1403 1410 1418 1428 1432 1435 1450 1453 1456 1448 1444 1443 1445 1448 1451 1453 1455 1456 1457 1457 1457 1457 1456 1455 1453 1452 1450 1448 1446 1443 1442
1433 1431 1430 1428 1425 1422 1418 1416 1415 1416 1419 1422 1424 1422 1420 1418 1416 1415 1413 1411 1408 1406 1409 1410 1421 1434 1434 1443 1448 1449 1451 1445 1443 1445 1447 1450 1452 1453 1454 1455 1455 1455 1455 1455 1454 1453 1451 1450 1448 1446 1443 1442 1439 1437
1437 1436 1433 1430 1427 1424 1421 1419 1421 1426 1429 1431 1430 1429 1426 1423 1421 1419 1418 1416 1412 1411 1413 1420 1424 1436 1449 1448 1448 1446 1445 1445 1447 1449 1451 1453 1454 1455 1456 1456 1456 1455 1454 1452 1451 1449 1447 1445 1443 1440 1438 1436 1434 1432
1442 1439 1436 1433 1429 1427 1425 1427 1428 1433 1437 1436 1436 1433 1430 1429 1427 1425 1424 1422 1419 1417 1419 1424 1436 1450 1447 1446 1446 1448 1449 1450 1452 1453 1454 1455 1455 1455 1456 1455 1454 1453 1451 1449 1446 1444 1442 1439 1437 1435 1433 1431 1429 1428
1444 1442 1439 1435 1432 1430 1431 1435 1436 1437 1438 1440 1439 1437 1436 1435 1434 1431 1429 1427 1424 1425 1431 1443 1450 1451 1451 1451 1451 1452 1453 1453 1454 1454 1455 1455 1455 1455 1454 1453 1451 1449 1447 1444 1443 1440 1438 1436 1434 1432 1430 1429 1426 1425
1445 1443 1440 1438 1435 1435 1438 1441 1442 1443 1443 1442 1442 1441 1441 1439 1438 1436 1435 1435 1435 1444 1449 1453 1455 1455 1455 1454 1454 1455 1455 1455 1454 1455 1455 1455 1455 1455 1454 1452 1450 1447 1444 1441 1439 1437 1435 1433 1431 1429 1427 1425 1424 1422
1447 1445 1442 1440 1439 1440 1443 1445 1445 1445 1445 1445 1444 1445 1445 1446 1446 1446 1447 1448 1456 1460 1460 1459 1459 1458 1457 1457 1457 1457 1457 1457 1457 1456 1456 1455 1454 1453 1451 1449 1446 1444 1442 1439 1437 1435 1433 1431 1429 1427 1425 1423 1421 1420
1448 1446 1444 1443 1443 1444 1450 1447 1447 1447 1448 1449 1449 1449 1451 1451 1452 1452 1457 1463 1465 1465 1462 1460 1461 1461 1460 1460 1461 1460 1459 1459 1457 1456 1456 1455 1454 1452 1450 1448 1445 1442 1439 1437 1435 1433 1430 1428 1426 1424 1422 1421 1419 1418
1449 1448 1447 1447 1449 1451 1451 1450 1451 1451 1452 1453 1454 1456 1457 1456 1456 1458 1467 1470 1472 1468 1465 1464 1464 1464 1464 1463 1462 1461 1461 1459 1458 1456 1455 1454 1453 1451 1449 1447 1444 1441 1438 1435 1433 1430 1428 1426 1424 1422 1420 1419 1418 1417
1453 1456 1455 1454 1455 1453 1456 1457 1456 1455 1463 1462 1460 1460 1460 1459 1464 1469 1471 1474 1473 1471 1469 1468 1467 1466 1465 1465 1464 1463 1462 1460 1458 1457 1455 1453 1452 1450 1448 1445 1442 1439 1436 1432 1430 1427 1425 1423 1422 1420 1419 1418 1417 1416
1459 1461 1461 1461 1461 1459 1461 1464 1464 1464 1464 1464 1463 1463 1462 1463 1470 1475 1476 1475 1474 1473 1471 1470 1469 1468 1468 1467 1466 1464 1462 1461 1459 1457 1454 1452 1450 1447 1444 1441 1438 1435 1433 1431 1427 1424 1422 1421 1419 1418 1417 1417 1416 1415
1467 1465 1465 1464 1463 1463 1463 1463 1463 1464 1467 1467 1465 1465 1466 1475 1477 1479 1478 1477 1475 1474 1473 1472 1471 1470 1469 1468 1467 1466 1463 1461 1458 1456 1454 1452 1450 1448 1445 1441 1437 1435 1431 1427 1425 1422 1420 1418 1417 1416 1415 1415 1414 1414
1468 1467 1468 1467 1465 1465 1465 1465 1467 1470 1468 1468 1468 1472 1474 1476 1478 1479 1479 1478 1477 1476 1474 1473 1472 1471 1470 1469 1467 1466 1464 1462 1460 1458 1456 1455 1451 1448 1445 1441 1438 1433 1429 1425 1422 1420 1418 1416 1415 1414 1413 1412 1412 1413
1469 1468 1468 1466 1465 1466 1468 1469 1469 1469 1469 1468 1469 1473 1476 1477 1478 1478 1479 1478 1477 1476 1475 1474 1473 1472 1470 1469 1467 1466 1464 1462 1459 1456 1453 1450 1447 1445 1442 1438 1433 1429 1426 1422 1420 1418 1416 1414 1412 1411 1410 1410 1410 1411
1470 1469 1468 1468 1468 1470 1471 1470 1471 1471 1470 1470 1471 1474 1476 1478 1479 1479 1479 1479 1478 1477 1475 1474 1473 1473 1471 1470 1469 1468 1466 1463 1460 1457 1453 1450 1447 1443 1439 1434 1431 1428 1424 1420 1417 1415 1414 1412 1411 1410 1409 1408 1409 1409
1471 1470 1469 1469 1470 1471 1471 1472 1472 1473 1473 1473 1473 1474 1476 1479 1480 1480 1480 1479 1478 1477 1476 1475 1474 1473 1471 1470 1469 1468 1466 1464 1461 1458 1455 1451 1447 1442 1439 1435 1432 1427 1423 1419 1416 1414 1411 1410 1409 1408 1407 1407 1408 1409
1471 1470 1470 1470 1472 1472 1472 1472 1473 1474 1475 1476 1477 1478 1479 1480 1480 1482 1481 1480 1479 1478 1476 1475 1474 1473 1471 1469 1468 1466 1464 1461 1459 1456 1453 1449 1446 1442 1439 1435 1431 1427 1423 1419 1416 1413 1411 1409 1408 1407 1406 1406 1407 1408
1471 1470 1470 1470 1471 1472 1473 1473 1473 1475 1476 1478 1479 1480 1480 1481 1482 1483 1481 1480 1479 1478 1476 1475 1474 1472 1471 1469 1468 1466 1464 1461 1458 1455 1452 1449 1445 1442 1437 1434 1430 1426 1423 1419 1416 1413 1411 1409 1407 1406 1406 1405 1406 1407
Wind_Speed
30 31 32 33 33 33 32 30 28 26 28 28 27 26 27 29 29 30 33 30 24 10 13 9 7 3 11 8 4 4 4 2 2 2 3 4 3 5 4 5 5 6 6 3 3 2 7 9 6 8 5 16 25 28
30 33 33 33 32 31 29 28 26 26 27 26 27 26 28 30 29 30 36 29 21 17 7 11 14 15 15 18 8 6 1 2 6 3 2 3 3 2 5 4 2 2 4 5 3 2 3 1 0 7 19 29 26 25
31 32 32 31 31 30 30 28 26 23 25 24 25 26 27 31 29 28 31 27 18 13 4 5 4 8 12 16 21 8 6 3 2 7 3 2 3 2 4 3 4 1 1 4 4 3 4 13 16 17 25 26 23 20
31 31 31 31 30 29 29 27 24 23 24 24 24 25 28 30 30 21 24 21 17 2 2 2 3 3 6 10 13 16 7 14 7 5 4 2 2 3 2 2 3 1 4 5 4 3 10 10 18 19 23 22 20 15
29 29 28 29 28 27 26 24 22 22 22 24 24 24 28 32 27 25 27 19 17 5 3 4 6 5 3 8 12 6 13 15 9 4 3 2 3 4 2 2 2 2 4 3 3 13 6 11 21 22 23 20 16 14
28 27 27 28 27 26 24 21 21 21 22 23 25 24 27 25 26 24 8 4 9 7 5 2 3 9 11 7 10 14 13 10 6 6 3 4 4 3 2 2 3 2 7 10 6 20 13 23 23 21 20 17 13 8
26 26 26 27 28 24 22 21 21 21 23 23 25 26 27 24 16 6 4 11 5 8 4 3 2 4 10 14 19 18 14 10 7 5 4 3 4 4 2 2 6 4 6 8 15 21 18 28 23 17 16 13 8 2
26 26 26 26 24 21 20 19 20 22 23 23 25 26 28 16 5 0 7 7 6 6 4 3 2 2 6 6 4 6 6 7 10 5 4 3 3 4 3 2 6 9 18 17 20 13 25 25 21 17 12 7 1 4
25 25 24 22 21 20 19 20 21 22 22 22 26 26 11 3 1 1 4 6 9 7 3 2 1 3 5 4 4 5 5 4 5 3 3 3 2 4 3 5 11 20 7 17 23 25 24 22 16 12 6 2 6 8
23 23 23 20 20 19 20 20 20 21 21 21 19 6 4 8 2 2 3 3 5 6 5 2 2 3 4 1 3 3 5 2 2 3 3 3 2 3 3 5 11 8 20 26 28 21 18 15 10 5 2 6 9 12
22 21 23 20 19 18 18 17 18 18 18 12 8 4 12 7 3 2 3 4 4 2 5 5 6 3 4 2 2 5 2 2 3 1 2 2 2 2 4 8 12 14 18 14 15 15 11 7 3 2 6 9 11 12
20 23 22 18 16 15 15 16 15 16 15 13 11 9 6 5 4 3 2 3 3 3 3 2 3 5 5 4 4 4 3 3 3 4 3 2 2 3 8 16 20 18 14 13 10 8 5 1 5 9 12 12 14 16
21 21 17 15 14 13 15 13 13 16 17 7 4 4 6 6 6 5 5 3 2 4 2 2 2 3 4 7 7 4 6 2 2 4 1 3 2 9 15 19 17 11 11 8 5 0 4 8 11 14 14 15 18 21
18 16 13 13 13 13 12 13 14 15 8 5 7 6 4 4 4 3 3 2 4 4 9 7 5 5 6 5 1 5 1 2 4 4 2 2 10 15 19 19 15 11 6 2 2 6 8 10 11 12 15 19 21 21
11 10 13 13 13 12 11 12 12 14 6 7 6 5 4 5 5 7 5 7 8 5 3 3 6 5 3 5 3 3 5 3 2 3 3 8 13 13 12 9 6 2 1 4 6 8 9 12 15 18 18 19 20 21
10 9 14 16 16 15 9 9 12 10 5 7 8 4 9 4 9 13 13 13 11 7 4 6 3 4 5 3 5 1 4 1 2 2 9 14 14 10 7 5 3 3 5 7 9 11 14 18 19 19 18 19 19 19
9 12 13 14 16 17 15 9 7 8 7 6 6 17 11 4 6 8 11 16 16 4 2 3 5 1 1 4 4 0 2 2 6 14 14 12 9 6 4 4 5 7 9 10 13 16 17 17 17 18 18 17 17 16
12 11 13 15 18 15 13 10 6 7 7 7 5 15 11 15 11 15 15 20 13 6 4 3 6 5 3 3 2 2 4 14 15 14 11 9 7 6 5 6 7 9 12 14 15 15 16 17 17 16 18 17 17 17
11 13 14 16 18 10 5 7 7 5 6 4 7 11 8 11 15 12 13 16 15 11 6 5 6 3 2 2 3 11 12 12 12 10 9 7 6 6 7 9 11 12 13 15 16 17 17 18 17 17 17 16 16 16
14 13 12 14 16 6 5 6 6 5 6 6 9 12 5 8 12 15 15 16 18 8 11 5 3 6 6 12 12 12 11 10 7 7 6 6 6 8 10 12 14 16 17 17 17 17 17 16 14 14 15 14 16 17
10 11 12 14 9 10 5 4 5 4 4 5 7 8 6 12 16 15 18 17 15 8 6 12 15 10 12 13 11 10 10 9 9 8 6 6 8 9 11 13 15 17 18 18 17 16 14 15 15 15 16 15 14 13
14 13 9 9 7 4 6 7 3 3 3 3 5 6 5 5 7 12 9 13 7 9 8 10 10 8 9 11 12 10 9 8 7 6 6 6 7 11 14 17 18 19 17 15 15 16 16 16 15 15 14 13 11 10
12 10 5 6 3 5 3 5 2 5 3 4 4 4 4 5 7 6 6 6 8 12 10 10 9 10 10 10 9 9 9 8 7 7 7 9 11 12 13 15 16 17 18 15 14 14 16 15 14 12 11 10 10 9
9 5 5 5 8 2 3 4 4 4 3 5 3 3 4 6 6 6 3 4 11 14 14 13 8 5 6 7 10 12 12 12 10 10 10 11 11 12 14 15 16 16 16 15 15 16 15 13 12 10 9 9 8 7
4 7 6 6 6 5 6 5 6 5 2 2 2 3 4 5 3 3 2 5 10 16 14 12 12 13 12 11 10 11 13 13 13 12 12 12 12 13 14 14 15 16 17 17 18 17 14 11 9 9 9 7 7 7
5 8 5 6 6 4 1 3 2 1 1 3 2 2 3 3 4 3 2 9 8 12 13 12 12 11 10 11 11 13 16 16 14 13 12 11 16 17 19 21 24 23 21 18 17 16 14 12 11 9 7 6 6 5
4 3 4 6 3 2 3 2 2 3 3 2 2 2 2 4 2 2 1 7 8 9 9 9 9 9 9 9 10 13 15 17 16 15 11 12 14 13 17 21 23 22 20 17 15 13 14 13 11 8 7 5 5 4
3 6 2 8 3 5 2 2 2 2 2 3 1 4 3 2 2 2 2 4 6 8 9 9 9 8 8 8 10 12 14 14 12 11 6 9 11 12 14 16 17 19 19 16 14 13 12 11 10 9 8 6 4 5
2 7 4 5 2 5 5 3 2 2 4 3 3 2 3 3 3 4 4 5 7 9 6 6 6 7 8 10 12 13 15 17 18 19 20 21 23 22 21 20 22 24 22 18 13 10 10 10 11 10 8 6 5 6
4 8 2 2 2 2 3 3 4 6 7 7 6 8 8 7 7 5 5 6 6 7 8 8 7 7 6 6 9 11 13 16 19 21 23 24 25 25 26 26 27 24 22 18 15 11 8 7 7 7 7 3 5 6
5 4 2 2 2 2 2 5 6 6 5 6 6 7 8 6 7 9 6 7 10 11 8 6 6 8 8 7 8 10 11 14 17 18 19 21 22 24 26 25 23 22 21 18 15 13 11 8 6 5 3 3 6 6
4 2 1 1 2 3 3 2 2 3 3 3 4 4 3 3 2 3 7 7 6 7 9 10 7 6 9 12 12 13 16 18 19 21 22 23 23 23 25 22 21 21 21 19 16 14 11 9 6 5 3 3 8 8
2 2 2 2 2 2 2 2 2 3 4 3 3 3 3 3 2 6 6 8 7 10 11 11 11 8 9 12 11 13 16 17 18 21 21 21 20 20 21 21 21 21 20 19 17 14 11 9 6 5 4 2 6 10
Wind_Direction
314 317 315 313 310 309 308 307 308 309 312 314 316 320 322 326 324 323 309 302 290 256 269 252 245 155 170 185 158 168 117 116 64 139 138 182 140 200 114 148 176 155 148 168 109 96 276 153 121 173 146 120 144 148
316 313 312 309 310 311 313 310 306 306 309 312 314 319 322 321 324 321 311 313 295 220 246 229 232 221 206 208 197 176 238 167 176 112 72 109 125 115 152 190 213 178 175 169 172 162 23 82 187 146 147 141 142 139
315 312 311 310 311 311 312 311 307 308 308 312 316 318 320 317 320 313 299 312 215 195 153 173 193 210 210 208 205 176 233 180 98 67 110 151 125 135 153 214 106 153 26 82 107 7 67 101 116 127 140 134 136 134
313 317 316 312 310 310 310 310 308 309 307 313 315 317 318 320 320 312 308 307 254 196 104 59 157 190 205 191 182 198 206 204 187 143 78 91 109 34 79 99 101 63 115 121 80 64 87 93 118 130 130 129 130 127
319 317 320 321 318 312 311 310 308 308 310 313 315 319 318 320 323 314 306 289 243 233 113 129 84 66 136 180 183 149 166 150 138 100 79 98 102 108 58 89 124 348 158 178 165 161 119 150 152 152 144 140 140 139
318 319 322 321 320 316 315 313 311 309 311 313 315 317 317 320 316 305 300 330 227 178 118 105 71 66 86 123 159 173 164 135 89 84 78 78 76 97 118 95 53 106 113 94 141 150 133 153 157 153 144 143 139 135
319 320 322 320 317 314 313 309 311 311 311 313 314 315 316 321 315 247 293 302 215 157 118 129 99 75 96 93 85 84 96 81 83 82 66 75 50 65 82 94 107 112 106 147 161 166 125 152 152 151 144 141 140 125
321 321 321 323 324 318 317 316 315 313 311 312 314 313 315 313 272 65 21 353 155 116 97 110 100 93 52 34 58 50 71 62 45 81 67 59 53 60 66 39 149 141 128 127 146 170 156 147 139 141 143 144 210 311
323 325 324 323 325 324 322 318 318 319 317 320 317 317 316 321 343 107 45 75 97 77 98 75 160 120 81 52 67 55 58 62 48 56 56 42 33 47 58 206 145 145 129 123 128 128 134 136 136 140 150 263 306 315
322 327 325 322 322 323 324 328 325 321 325 324 325 340 345 344 332 226 281 13 43 44 45 72 31 77 101 80 58 80 53 62 69 35 3 55 63 68 37 142 153 124 137 133 125 122 129 129 137 149 286 312 314 315
323 325 327 322 321 322 329 330 327 332 334 342 335 325 319 316 304 19 40 38 4 65 39 43 55 106 62 101 106 32 114 36 83 284 84 53 41 5 81 115 145 137 134 133 129 130 131 132 133 329 319 317 314 314
326 327 324 326 325 330 330 333 342 340 333 325 314 308 314 4 18 58 24 4 29 56 39 45 44 79 75 83 91 7 96 28 81 343 70 43 253 83 120 128 127 123 119 127 134 139 138 34 336 329 325 321 318 316
325 329 332 335 333 334 336 338 340 334 336 327 334 333 357 355 34 31 9 356 44 14 67 127 65 67 85 61 71 64 64 50 326 43 77 223 187 121 119 143 137 127 120 117 114 99 300 303 309 313 314 313 312 312
329 335 338 337 340 338 337 345 346 342 342 355 8 15 30 7 16 7 349 350 8 79 97 87 63 57 34 56 61 79 63 64 57 57 227 242 157 127 119 123 130 130 130 110 324 314 308 304 305 308 311 311 309 309
340 353 358 7 0 353 353 353 357 345 10 30 23 30 22 347 350 346 21 54 43 37 53 73 66 70 25 77 35 107 40 36 141 192 211 154 143 132 124 124 127 136 310 322 321 319 315 312 310 310 312 311 310 311
29 41 27 8 16 14 3 3 3 9 48 31 36 3 1 345 6 27 41 38 17 4 26 52 87 60 40 97 53 100 94 194 226 219 113 124 123 119 108 91 57 7 340 332 324 317 314 313 313 314 314 314 312 310
47 40 12 9 8 3 6 5 26 40 36 31 4 15 12 356 13 26 26 9 8 26 42 48 55 130 90 50 38 344 131 243 106 106 102 99 95 78 50 21 1 347 333 322 317 315 314 313 313 311 310 313 311 311
40 18 5 358 355 357 13 32 55 58 42 19 21 356 26 34 25 38 33 26 24 30 31 96 122 48 73 79 9 286 71 93 94 90 83 69 53 42 21 356 341 331 324 320 318 318 317 316 316 316 316 316 313 315
17 1 356 358 359 1 16 34 31 80 52 26 6 19 16 31 43 45 33 26 24 44 68 54 53 43 14 25 67 80 84 88 90 81 70 55 30 10 353 338 331 328 326 326 326 325 323 321 320 318 317 319 316 313
351 348 352 359 5 16 56 33 32 37 36 22 22 18 35 19 32 44 41 39 35 45 42 49 40 15 58 70 76 76 70 62 65 73 59 34 13 351 341 340 338 335 333 328 325 323 320 320 322 318 317 319 309 313
357 354 359 5 21 41 71 47 44 47 10 32 16 28 18 26 34 32 26 35 51 32 51 35 50 69 69 75 71 59 54 41 44 49 40 9 353 352 345 340 337 335 332 331 329 330 330 327 325 321 319 320 317 314
355 354 357 13 27 54 55 34 55 36 24 22 19 33 36 24 16 16 26 46 49 22 13 6 28 73 79 68 60 55 49 37 30 24 19 8 348 343 343 341 340 339 341 337 333 331 329 327 326 320 318 319 320 320
351 352 6 9 43 38 40 17 42 26 69 5 8 32 20 23 15 22 71 49 34 12 31 56 81 77 73 65 53 47 43 38 33 22 9 2 357 351 346 345 344 342 341 341 332 329 328 328 324 320 322 323 323 326
354 9 22 30 23 27 12 34 32 31 50 28 35 23 7 0 15 63 61 58 21 38 53 64 84 62 57 58 51 41 32 24 14 8 2 355 350 352 352 351 350 347 341 334 333 332 332 329 327 324 324 327 331 332
11 13 16 7 17 21 29 8 357 41 44 327 49 13 354 6 62 60 63 24 16 31 43 54 60 59 52 48 41 29 20 18 16 7 355 347 350 348 342 350 355 351 348 342 337 335 335 332 328 325 326 325 329 333
66 21 35 6 359 38 333 35 18 342 60 32 45 351 20 62 59 54 43 357 11 19 30 40 45 46 43 42 34 25 17 15 11 2 355 351 350 349 348 348 348 355 351 337 330 334 336 334 328 325 323 318 319 319
44 343 16 18 1 2 54 68 66 76 56 29 333 28 51 70 77 73 26 15 24 25 25 29 31 27 30 33 28 20 12 4 4 6 7 358 355 353 353 351 345 342 339 339 335 327 324 325 325 323 320 314 300 297
52 15 11 344 29 25 115 47 55 42 290 8 353 36 101 118 106 131 68 22 17 14 19 21 22 23 26 24 19 15 16 16 14 8 13 20 10 1 358 352 348 349 349 347 340 329 322 320 319 315 310 303 272 254
24 351 346 9 60 54 44 47 55 36 357 360 103 104 105 83 86 111 71 41 31 17 0 2 5 21 25 22 14 6 4 6 6 13 14 8 6 8 3 359 360 360 352 346 344 330 320 314 307 307 308 296 251 226
4 359 8 50 64 44 29 55 83 73 62 77 92 107 100 98 78 85 56 32 18 20 22 22 29 24 13 14 9 3 8 6 6 7 2 359 355 357 360 359 356 352 351 349 348 347 334 317 308 306 307 282 211 200
342 345 9 60 90 78 66 112 110 91 65 64 84 115 120 122 86 60 47 32 27 22 12 12 10 7 1 344 343 352 356 358 2 2 355 350 352 356 353 351 350 350 353 355 353 350 347 341 331 330 310 238 198 196
346 4 354 96 107 87 111 112 107 98 95 74 64 68 86 89 84 71 28 21 17 15 17 14 3 357 3 358 346 344 347 348 347 348 350 350 350 349 346 350 352 354 357 358 357 355 352 348 341 336 319 241 207 201
326 20 66 106 109 100 65 123 92 88 70 73 64 61 63 65 75 22 4 9 11 12 9 8 7 358 350 351 345 340 342 343 342 343 341 343 345 346 347 351 355 357 358 360 360 359 1 359 354 348 334 257 202 200